Location: Vibo Valentia
(38.6670°N, 16.1000°E)
Time: 02:53:48
(UTC+02:00)

STARLINK-1368 - Pass Details

Date: 30 May 2020
Orbit: 548 x 551 km, 53.0° (Epoch: 13 July)

Event Time Altitude Azimuth Distance (km) Brightness Sun altitude
Exits shadow 01:03:56 16° 59° (ENE) 1,469 6.1 -29.5°
Drops below altitude 10° 01:04:48 10° 56° (ENE) 1,802 6.6 -29.5°
Enters shadow 02:06:54 -59° 235° (SW) 11,558 10.3 -27.1°
